Regional Weather Roundup
Issued by NWS

Home | Current Version | Previous Version | Graphics & Text | Print | Product List | Glossary On
Versions: 1 2 3 4 5 6 7 8 9 10 11 12 13 14 15 16 17 18 19 20 21 22 23 24 25 26 27 28 29 30 31 32 33 34 35 36 37 38 39 40 41 42 43 44 45 46 47 48 49 50
000
ASUS43 KLMK 240110
RWRKY
KENTUCKY REGIONAL WEATHER ROUNDUP
NATIONAL WEATHER SERVICE LOUISVILLE KY
900 PM EDT WED AUG 23 2017

NOTE "FAIR" INDICATES FEW OR NO CLOUDS BELOW 12,000 FEET
WITH NO SIGNIFICANT WEATHER AND/OR OBSTRUCTIONS TO VISIBILITY.

KYZ001>023-026-027-061>063-070>075-240200-
WESTERN AND SOUTH CENTRAL KENTUCKY

CITY           SKY/WX    TMP DP  RH WIND       PRES   REMARKS
PADUCAH        CLEAR     73  56  54 NE5       29.99R
HENDERSON      NOT AVBL
OWENSBORO      PTCLDY    72  57  59 N6        30.00R
HOPKINSVILLE   PTCLDY    71  59  64 N3        29.99R
BOWLING GREEN  CLEAR     74  58  57 CALM      29.98S
GLASGOW        PTCLDY    69  57  64 CALM      29.98S
$$

KYZ024-025-028>034-038-045-046-053-240200-
NORTH CENTRAL KENTUCKY

CITY           SKY/WX    TMP DP  RH WIND       PRES   REMARKS
LOUISVILLE/SDF MOCLDY    77  56  48 N5        29.98R
LOUISVILLE/LOU PTCLDY    73  58  59 N5        29.99R
FORT KNOX      CLEAR     68  57  69 NW7       29.98R
$$

KYZ035>037-039>044-047>052-055>060-089>105-240200-
NORTHEAST KENTUCKY

CITY           SKY/WX    TMP DP  RH WIND       PRES   REMARKS
LEXINGTON      CLEAR     71  52  50 N5        29.99S
COVINGTON      CLEAR     70  54  56 NW8       29.99S
FRANKFORT      CLEAR     71  54  54 NW3       29.98R
$$

KYZ054-064>069-076>088-106>120-240200-
SOUTHEAST KENTUCKY

CITY           SKY/WX    TMP DP  RH WIND       PRES   REMARKS
JACKSON        CLEAR     67  56  67 CALM      30.00R
LONDON         PTCLDY    69  58  67 NE3       29.99R
SOMERSET       CLEAR     68  55  64 N3        30.00R
MIDDLESBORO    PTCLDY    72  61  69 N3        29.97S
MONTICELLO     CLOUDY    65  64  97 NE12      30.00R
$$




USA.gov is the U.S. government's official web portal to all federal, state and local government web resources and services.